Hourly Data Report for May 13, 2003

SHERBROOKE A
QUEBEC

45°26'00.000" N
71°41'00.000" W
241.40 m
7028124
71610
YSC

Download Data

Hourly Data (May 2003)
Hourly Data Report for May 13, 2003
TIME
LST
Temp Definition
°C
Dew Point Definition
°C
Rel Hum Definition
%
Precip. Amount Definition
mm

Wind Dir Definition
10's deg

Wind Spd Definition
km/h
Visibility Definition
km
Stn Press Definition
kPa
Hmdx Definition


Wind Chill Definition


Weather Definition


00:00 7.8 7.3 97     0 8.0 96.83     Drizzle
01:00 7.6 7.1 97     0 15.0 96.80      
02:00 7.4 6.9 97     0 8.0 96.80      
03:00 6.7 6.3 97     0 2.9 96.80      
04:00 6.4 6.0 97     0 2.1 96.82     Rain
05:00 6.7 6.2 97   12 4 15.0 96.86     Drizzle
06:00 7.5 7.1 97   7 4 15.0 96.92     Rain
07:00 8.6 7.7 94   1 4 16.1 96.96     Drizzle
08:00 8.4 7.4 93   5 9 24.1 97.00     Cloudy
09:00 8.4 6.9 90   4 7 19.3 97.02     Drizzle
10:00 9.6 7.8 89   9 4 24.1 97.04     Drizzle
11:00 10.7 7.5 81   29 4 24.1 97.04     Mostly Cloudy
12:00 11.3 7.2 76   28 7 24.1 97.03     Mostly Cloudy
13:00 10.8 6.3 74   34 15 24.1 97.07     Cloudy
14:00 9.8 6.8 82   33 7 24.1 97.12     Cloudy
15:00 9.3 6.5 83   34 13 24.1 97.18     Cloudy
16:00 8.4 6.1 85   32 11 24.1 97.26     Rain Showers
17:00 7.4 6.1 91   33 6 15.0 97.32     Rain
18:00 6.7 5.4 91   33 4 15.0 97.37     Rain
19:00 6.5 5.3 92   32 6 15.0 97.43     Rain
20:00 6.0 4.8 92   31 7 15.0 97.50     Rain
21:00 5.8 4.9 94   30 6 11.3 97.56     Rain
22:00 5.6 4.4 92   32 6 15.0 97.58     Rain
23:00 4.8 3.3 90   2 6 15.0 97.60     Rain

Notes on Data Quality.

Legend

  • E = Estimated
  • M = Missing
  • NA = Not Available*
  • [empty] = Indicates an unobserved value
Date modified: